Location: Beaver Brook Trail
(44.0290°N, 71.8137°W)
Time: 02:24:34
(UTC+00:00)

Altair - Pass Details

Date: 10 November 2024
Orbit: 1501 x 1683 km, 47.2° (Epoch: 03 December)

Event Time Altitude Azimuth Distance (km) Brightness Sun altitude
Rises 22:09:49 0° 294° (WNW) 4,640 10.9 -8.3°
Reaches altitude 10° 22:12:55 10° 290° (WNW) 3,664 10.4 -8.8°
Maximum altitude 22:21:41 52° 218° (SW) 1,850 8.3 -10.4°
Drops below altitude 10° 22:30:42 10° 145° (SE) 3,754 9.3 -11.9°
Sets 22:33:55 0° 141° (SE) 4,761 9.8 -12.5°
